Hourly Data Report for April 15, 2018

KUGAARUK CLIMATE
NUNAVUT
Current Station Operator: ECCC - MSC

68°32'15.060" N
89°47'47.020" W
15.80 m
2303094
71407
NBB

Download Data

Hourly Data (April 2018)
Hourly Data Report for April 15, 2018
TIME
LST
Temp Definition
°C
Dew Point Definition
°C
Rel Hum Definition
%
Precip. Amount Definition
mm

Wind Dir Definition
10's deg

Wind Spd Definition
km/h
Visibility Definition
km
Stn Press Definition
kPa
Hmdx Definition


Wind Chill Definition


Weather Definition


00:00 -21.6 -23.8 82 0.0 7 4   102.22   -25 LegendNANA
01:00 -23.0 -25.5 80 0.0 4 9   102.24   -30 LegendNANA
02:00 -23.3 -25.8 80 0.0 4 8   102.19   -30 LegendNANA
03:00 -20.4 -22.6 83 0.0 6 6   102.16   -25 LegendNANA
04:00 -18.1 -20.1 84 0.0 5 14   102.13   -26 LegendNANA
05:00 -16.3 -18.4 84 0.0 5 16   102.10   -25 LegendNANA
06:00 -14.6 -16.8 84 0.0 6 16   102.05   -23 LegendNANA
07:00 -13.8 -17.1 76 0.0 3 9   102.03   -19 LegendNANA
08:00 -13.0 -17.8 68 0.0 5 7   101.95   -18 LegendNANA
09:00 -11.9 -16.9 66 0.0 15 2   101.92   -13 LegendNANA
10:00 -11.2 -17.7 59 0.0 8 4   101.88   -14 LegendNANA
11:00 -10.2 -16.5 60 0.0 4 4   101.84   -13 LegendNANA
12:00 -8.6 -12.7 73 0.0 24 14   101.82   -15 LegendNANA
13:00 -7.6 -10.8 78 0.0 21 20   101.77   -15 LegendNANA
14:00 -6.9 -10.1 78 0.0 23 14   101.75   -13 LegendNANA
15:00 -6.8 -9.4 82 0.0 24 19   101.74   -14 LegendNANA
16:00 -7.3 -9.9 81 0.0 24 24   101.75   -15 LegendNANA
17:00 -7.9 -9.9 85 0.0 24 20   101.77   -15 LegendNANA
18:00 -8.1 -9.8 87 0.0 23 15   101.81   -14 LegendNANA
19:00 -8.7 -10.2 89 0.0 27 16   101.83   -15 LegendNANA
20:00 -9.1 -10.8 88 0.0 26 20   101.89   -17 LegendNANA
21:00 -9.4 -11.3 86 0.0 26 19   101.92   -17 LegendNANA
22:00 -11.6 -13.9 83 0.0 2 6   101.97   -15 LegendNANA
23:00 -13.5 -15.5 85 0.0 33 15   102.04   -21 LegendNANA

Notes on Data Quality.

Legend

  • E = Estimated
  • M = Missing
  • NA = Not Available*
  • [empty] = Indicates an unobserved value
Date modified: